[[{"header":{"parameterUnit":"m.s-1","parameterCategory":1,"la1":30.2991,"la2":30.254,"lo1":-89.0895,"lo2":-89.0444,"dy":0.0017,"dx":0.0017,"nx":28,"ny":28,"refTime":"2024-08-24T03:00:00:Z","depth":0,"parameterNumber":2,"parameterNumberName":"U-component_of_WINDS"},"data":[0,0,0,0,0,0,0,0,0,0,0,0,0,0,0,0,0,0,0,0,0,0,0,0,0,0,0,0,0,0,0,0,0,0,0,0,0,0,0,0,0,0,0,0,0,0,0,0,0,0,0,0,0,0,0,0,0,0,-4.4765,-4.4764,0,-4.4703,-4.4702,-4.4701,-4.4543,-4.454,-4.4536,-4.4533,-4.4471,-4.4472,-4.4474,0,0,0,0,0,0,0,0,0,0,0,0,0,-4.4752,-4.4753,-4.4765,-4.4764,-4.4764,-4.4703,-4.4702,-4.4701,-4.4544,-4.454,-4.4536,-4.4532,-4.4471,-4.4472,-4.4474,0,0,0,0,0,0,0,0,0,0,0,0,0,-4.4731,-4.4754,-4.4765,-4.4678,-4.4669,-4.4703,-4.4702,-4.4701,-4.4545,-4.454,-4.4535,-4.453,-4.447,-4.4472,-4.4474,-4.4588,0,0,-4.4481,-4.4482,0,0,0,0,0,0,0,0,-4.4732,-4.4731,-4.4691,-4.4684,-4.4674,-4.4625,-4.4674,-4.4663,-4.4546,-4.4592,-4.4533,-4.4527,-4.4527,-4.4524,-4.4523,-4.4585,-4.4583,-4.4481,-4.4482,-4.4483,-4.4484,0,0,0,0,0,0,0,-4.4734,-4.4733,-4.474,-4.4691,-4.4681,-4.4643,-4.4634,-4.4671,-4.4588,-4.4588,-4.4576,-4.4571,-4.4521,-4.4521,-4.452,-4.4582,-4.4481,-4.4483,-4.4484,-4.4485,-4.4737,-4.4742,0,0,0,0,0,0,-4.4748,-4.4736,-4.4742,-4.4738,-4.4691,-4.4647,-4.4638,-4.4646,-4.4587,-4.4574,-4.4575,-4.4564,-4.452,-4.4518,-4.4518,-4.4648,-4.4483,-4.4485,-4.4487,-4.4732,-4.4738,-4.4744,0,0,0,0,0,0,-4.4748,-4.475,-4.4745,-4.4734,-4.473,-4.4653,-4.4664,-4.4648,-4.4648,-4.4578,-4.4562,-4.459,-4.4516,-4.4515,-4.4572,-4.4644,-4.4486,-4.4488,-4.4726,-4.4734,-4.4741,-4.491,0,0,0,0,0,0,-4.4748,-4.4751,-4.4792,-4.4736,-4.4732,-4.48,-4.4668,-4.465,-4.4652,-4.4636,-4.4588,-4.4575,-4.4512,-4.457,-4.4575,-4.4644,-4.449,-4.4719,-4.4729,-4.4739,-4.4898,-4.4923,-4.4944,0,0,0,0,0,-4.4748,-4.4842,-4.4795,-4.4796,-4.4781,-4.4804,-4.4802,-4.4726,-4.4658,-4.47,-4.4656,-4.4577,-4.4636,-4.4577,-4.4581,-4.4652,-4.4714,-4.4726,-4.4738,-4.4887,-4.4918,-4.4944,0,0,0,0,0,0,-4.4907,-4.4833,-4.478,-4.4857,-4.4839,-4.4777,-4.4827,-4.4761,-4.4761,-4.4746,-4.4653,-4.4644,-4.4715,-4.4689,-4.4625,-4.4761,-4.4662,-4.4676,-4.4774,-4.4803,-4.4826,-4.483,-4.4492,0,0,0,0,0,-4.4952,-4.4976,-4.4909,-4.4985,-4.4978,-4.4905,-4.4912,-4.4856,-4.4832,-4.4824,-4.4783,-4.4764,-4.4778,-4.479,-4.4799,-4.4894,-4.4882,-4.4946,-4.4969,-4.4989,-4.5001,-4.5051,-4.5079,-4.4784,-4.4784,-4.4784,0,0,-4.5043,-4.5005,-4.5026,-4.5016,-4.4994,-4.5022,-4.4899,-4.4933,-4.4953,-4.4829,-4.488,-4.4851,-4.4824,-4.4902,-4.4934,-4.4883,-4.508,-4.5004,-4.502,-4.5021,-4.5067,-4.5095,-4.512,-4.4792,-4.4791,-4.4789,0,0,-4.5223,-4.5197,-4.5257,-4.5239,-4.5209,-4.5161,-4.5176,-4.5126,-4.5101,-4.5152,-4.506,-4.5084,-4.511,-4.5095,-4.5091,-4.5272,-4.52,-4.5278,-4.5399,-4.5449,-4.5473,-4.5493,-4.5558,-4.5582,-4.529,-4.5291,-4.5291,0,-4.5341,-4.5378,-4.5297,-4.5338,-4.5337,-4.5227,-4.5289,-4.5276,-4.525,-4.5253,-4.5196,-4.5229,-4.5203,-4.5276,-4.5321,-4.5321,-4.5336,-4.5281,-4.5476,-4.5495,-4.5513,-4.5574,-4.5598,-4.53,-4.5299,-4.5298,-4.5297,0,-4.5524,-4.5552,-4.5605,-4.5584,-4.5589,-4.5641,-4.5569,-4.5585,-4.5531,-4.5489,-4.5544,-4.551,-4.5511,-4.5525,-4.5471,-4.5592,-4.5561,-4.5492,-4.5391,-4.5552,-4.5608,-4.563,-4.5314,-4.5311,-4.5308,-4.5306,0,0,-4.5799,-4.5735,-4.5756,-4.5746,-4.5707,-4.5728,-4.5776,-4.5777,-4.5793,-4.5781,-4.582,-4.5847,-4.5783,-4.5779,-4.5723,-4.5768,-4.5915,-4.5693,-4.5691,-4.5735,-4.6047,-4.6099,-4.6127,-4.5868,-4.5872,-4.5875,-4.605,0,-4.5969,-4.6045,-4.5976,-4.6067,-4.6093,-4.5991,-4.6034,-4.6015,-4.5979,-4.5997,-4.5957,-4.5978,-4.5892,-4.5889,-4.5929,-4.5888,-4.5976,-4.5875,-4.5904,-4.5906,-4.5912,-4.6156,-4.621,-4.6376,-4.6071,-4.6075,-4.6077,0,-4.6175,-4.6174,-4.6267,-4.6225,-4.6233,-4.6272,-4.627,-4.6288,-4.6267,-4.6237,-4.6235,-4.6168,-4.6214,-4.6118,-4.6181,-4.6114,-4.6122,-4.6105,-4.6109,-4.6107,-4.6,-4.6161,-4.6427,-4.6452,-4.6111,-4.6108,-4.6106,0,-4.6367,-4.6388,-4.6447,-4.6442,-4.6394,-4.6424,-4.6406,-4.6379,-4.6386,-4.6385,-4.6388,-4.6393,-4.6395,-4.6401,-4.6338,-4.6274,-4.641,-4.6308,-4.6388,-4.639,-4.6419,-4.6418,-4.669,-4.6427,-4.6427,-4.6427,-4.6426,0,-4.6562,-4.6623,-4.6532,-4.6569,-4.6636,-4.6558,-4.6626,-4.6597,-4.6576,-4.6606,-4.652,-4.655,-4.6466,-4.6488,-4.644,-4.65,-4.6502,-4.6481,-4.6467,-4.6487,-4.649,-4.649,-4.6477,-4.6433,-4.6432,-4.643,-4.6429,0,-4.6785,-4.6727,-4.6785,-4.6736,-4.6725,-4.6777,-4.6736,-4.6768,-4.6728,-4.6768,-4.6773,-4.671,-4.6733,-4.6671,-4.6684,-4.6652,-4.6739,-4.6707,-4.6746,-4.6736,-4.682,-4.6813,-4.71,-4.7134,-4.6852,-4.6854,-4.6857,0,-4.6913,-4.6958,-4.6915,-4.6929,-4.6916,-4.694,-4.6947,-4.6873,-4.6884,-4.6866,-4.6901,-4.6917,-4.6924,-4.6966,-4.6922,-4.6932,-4.6899,-4.6999,-4.69,-4.692,-4.69,-4.6898,-4.6903,-4.7019,-4.7023,-4.7026,-4.7028,0,-4.7146,-4.7116,-4.7129,-4.7133,-4.7144,-4.7144,-4.7138,-4.7155,-4.7077,-4.7094,-4.7116,-4.7123,-4.7137,-4.7154,-4.7155,-4.7137,-4.7071,-4.706,-4.7079,-4.71,-4.7121,-4.7111,-4.6802,-4.7053,-4.7051,-4.7049,-4.7047,-4.7046,-4.7325,-4.7361,-4.7337,-4.7356,-4.7344,-4.7341,-4.737,-4.7335,-4.7352,-4.7358,-4.7314,-4.7347,-4.7327,-4.7322,-4.7312,-4.7337,-4.7291,-4.7319,-4.7326,-4.7333,-4.7347,-4.7119,-4.7337,-4.7336,-4.7336,-4.7335,-4.7334,0,-4.7553,-4.7534,-4.7552,-4.7547,-4.7562,-4.75,-4.7491,-4.7508,-4.7537,-4.7525,-4.7536,-4.7563,-4.758,-4.754,-4.7551,-4.7579,-4.7549,-4.7585,-4.7581,-4.7578,-4.7388,-4.737,-4.7609,-4.7609,-4.7609,-4.7609,-4.7609,-4.7609,-4.7673,-4.7732,-4.77,-4.7754,-4.7734,-4.7764,-4.7765,-4.7763,-4.7753,-4.7788,-4.7802,-4.7776,-4.7753,-4.7763,-4.7776,-4.7764,-4.7772,-4.7819,-4.7796,-4.7618,-4.7591,-4.7566,-4.7549,-4.7821,-4.7822,-4.7984,-4.7986,-4.7987]},{"header":{"parameterUnit":"m.s-1","parameterCategory":1,"la1":30.2991,"la2":30.254,"lo1":-89.0895,"lo2":-89.0444,"dy":0.0017,"dx":0.0017,"nx":28,"ny":28,"refTime":"2024-08-24T03:00:00:Z","depth":0,"parameterNumber":3,"parameterNumberName":"V-component_of_WINDS"},"data":[0,0,0,0,0,0,0,0,0,0,0,0,0,0,0,0,0,0,0,0,0,0,0,0,0,0,0,0,0,0,0,0,0,0,0,0,0,0,0,0,0,0,0,0,0,0,0,0,0,0,0,0,0,0,0,0,0,0,1.7562,1.7562,0,1.7571,1.7571,1.7571,1.7629,1.7631,1.7632,1.7634,1.7635,1.7634,1.7632,0,0,0,0,0,0,0,0,0,0,0,0,0,1.7591,1.759,1.7562,1.7562,1.7563,1.7571,1.7571,1.7571,1.7629,1.7631,1.7633,1.7634,1.7635,1.7634,1.7632,0,0,0,0,0,0,0,0,0,0,0,0,0,1.7586,1.7589,1.7562,1.7593,1.7595,1.7571,1.7571,1.7571,1.7629,1.7631,1.7633,1.7635,1.7636,1.7634,1.7632,1.7577,0,0,1.7626,1.7625,0,0,0,0,0,0,0,0,1.7587,1.7585,1.7588,1.759,1.7594,1.7602,1.7582,1.7573,1.7628,1.7616,1.7634,1.7636,1.7622,1.7621,1.7618,1.7577,1.7577,1.7626,1.7625,1.7624,1.7623,0,0,0,0,0,0,0,1.7587,1.7585,1.7566,1.7588,1.7591,1.7604,1.7606,1.758,1.7606,1.7617,1.7621,1.7622,1.7623,1.7619,1.7618,1.7577,1.7626,1.7624,1.7623,1.7622,1.7492,1.749,0,0,0,0,0,0,1.7584,1.7585,1.7565,1.7566,1.7596,1.7602,1.7604,1.7597,1.7607,1.7611,1.762,1.7625,1.7622,1.762,1.7618,1.7554,1.7624,1.7622,1.7621,1.7495,1.7492,1.7489,0,0,0,0,0,0,1.7584,1.7581,1.7565,1.7577,1.7576,1.7599,1.759,1.7596,1.7592,1.7609,1.7613,1.7611,1.7623,1.7621,1.7588,1.7555,1.7621,1.762,1.7497,1.7494,1.7491,1.7425,0,0,0,0,0,0,1.7585,1.7581,1.7561,1.7576,1.7575,1.7535,1.7589,1.7594,1.7589,1.7595,1.7602,1.7605,1.7625,1.759,1.7586,1.7554,1.7618,1.75,1.7496,1.7492,1.743,1.742,1.7411,0,0,0,0,0,1.7585,1.7541,1.756,1.7557,1.7551,1.7533,1.7532,1.7558,1.7586,1.7566,1.7577,1.7605,1.756,1.7586,1.7582,1.7548,1.7502,1.7497,1.7492,1.7435,1.7422,1.7411,0,0,0,0,0,0,1.7519,1.7543,1.7565,1.7524,1.7527,1.7543,1.7518,1.7544,1.7536,1.7541,1.7571,1.7572,1.7534,1.7538,1.7567,1.7496,1.7536,1.753,1.7494,1.7482,1.7473,1.7471,1.7616,0,0,0,0,0,1.75,1.7485,1.7507,1.7469,1.7469,1.7494,1.7487,1.7507,1.7509,1.751,1.7519,1.7518,1.7504,1.7494,1.7482,1.7433,1.7434,1.7408,1.7398,1.739,1.7383,1.7357,1.7345,1.7472,1.7472,1.7473,0,0,1.7459,1.7471,1.7459,1.7456,1.746,1.7443,1.7494,1.7473,1.746,1.7506,1.7475,1.7482,1.7483,1.7442,1.7424,1.7444,1.7349,1.7384,1.7377,1.7374,1.7351,1.7339,1.7328,1.7469,1.747,1.747,0,0,1.7376,1.7385,1.7354,1.7358,1.7365,1.7382,1.7375,1.7388,1.7395,1.7366,1.74,1.7385,1.736,1.736,1.7356,1.7277,1.7302,1.7272,1.7221,1.7195,1.7185,1.7176,1.7146,1.7136,1.7266,1.7266,1.7266,0,1.7324,1.7301,1.7334,1.7312,1.7309,1.7354,1.7322,1.7324,1.7325,1.7321,1.7345,1.7316,1.732,1.7279,1.726,1.7257,1.7248,1.727,1.7184,1.7176,1.7168,1.714,1.7129,1.7262,1.7263,1.7263,1.7263,0,1.7237,1.722,1.7194,1.7198,1.7192,1.7165,1.7192,1.7183,1.7204,1.7218,1.7187,1.7195,1.7185,1.7178,1.7197,1.7139,1.7152,1.718,1.722,1.7152,1.7126,1.7115,1.7257,1.7258,1.7259,1.726,0,0,1.7108,1.7133,1.7122,1.7125,1.7138,1.7124,1.71,1.7093,1.7084,1.7084,1.7063,1.7043,1.7069,1.7065,1.7086,1.7063,1.6999,1.7094,1.7095,1.7075,1.6935,1.6912,1.6899,1.7017,1.7015,1.7014,1.6934,0,1.7027,1.6988,1.7018,1.6972,1.6957,1.7001,1.6979,1.6983,1.6997,1.6984,1.6998,1.6983,1.702,1.7018,1.6999,1.7011,1.6971,1.7017,1.6995,1.6994,1.699,1.6885,1.6861,1.6785,1.6924,1.6922,1.6921,0,1.6927,1.6926,1.6879,1.6896,1.6891,1.6871,1.6868,1.6857,1.6863,1.6874,1.6872,1.6898,1.6874,1.6916,1.6882,1.6913,1.6906,1.6911,1.6909,1.6905,1.6951,1.6877,1.6761,1.6749,1.6906,1.6907,1.6908,0,1.6836,1.6823,1.6793,1.6794,1.6814,1.6799,1.6806,1.6815,1.6809,1.6807,1.6803,1.6797,1.6792,1.6786,1.681,1.6839,1.6772,1.6816,1.6778,1.6777,1.6759,1.6759,1.6639,1.6759,1.6759,1.6759,1.676,0,1.6741,1.671,1.6753,1.6734,1.6701,1.6736,1.6702,1.6713,1.6721,1.6705,1.6743,1.6726,1.676,1.6746,1.6765,1.6733,1.6731,1.6738,1.6742,1.6733,1.6731,1.6726,1.6731,1.6756,1.6757,1.6758,1.6758,0,1.6631,1.6659,1.663,1.6653,1.6658,1.6632,1.665,1.6633,1.6651,1.6629,1.6626,1.6652,1.6639,1.6663,1.6651,1.6664,1.6619,1.6633,1.6617,1.6621,1.6581,1.6583,1.645,1.6434,1.6566,1.6565,1.6564,0,1.6568,1.6545,1.6567,1.656,1.6565,1.6553,1.6549,1.6583,1.6577,1.6584,1.6566,1.6556,1.655,1.6525,1.6542,1.6533,1.6546,1.65,1.6545,1.6536,1.6543,1.6543,1.654,1.649,1.6488,1.6487,1.6486,0,1.6451,1.6467,1.646,1.6459,1.6454,1.6454,1.6456,1.6448,1.6484,1.6475,1.6463,1.6459,1.6449,1.6438,1.6434,1.644,1.6467,1.6473,1.6463,1.6451,1.6442,1.6445,1.659,1.6474,1.6475,1.6476,1.6477,1.6477,1.6361,1.6344,1.6356,1.6348,1.6355,1.6357,1.6342,1.636,1.6351,1.6347,1.6368,1.6351,1.6359,1.6357,1.636,1.6346,1.6366,1.6353,1.6349,1.6344,1.6337,1.6447,1.6346,1.6346,1.6347,1.6347,1.6347,0,1.6245,1.6256,1.6249,1.6253,1.6246,1.6278,1.6283,1.6274,1.626,1.6266,1.626,1.6247,1.6237,1.6254,1.6247,1.6233,1.6246,1.623,1.6229,1.623,1.632,1.6329,1.6219,1.6219,1.6219,1.6219,1.6219,1.622,1.6183,1.6155,1.6173,1.6149,1.616,1.6146,1.6146,1.6148,1.6153,1.6137,1.613,1.6143,1.6153,1.6148,1.614,1.6145,1.614,1.6119,1.6128,1.6211,1.6224,1.6235,1.6243,1.6118,1.6118,1.6039,1.6038,1.6037]}]]